GFSNW_sfc_thetae_336.txt.gz
Theta_e
307 306 305 305 307 310 299 289 283 293 293 283 280 276 279 284 280 281 279 277 276 272 273 270 270 270 272 276 275 269 271 265 263 265 265 267 261 259 256 258 254 255 257 260
307 306 305 304 306 308 294 282 286 294 291 278 278 280 282 282 279 279 278 277 278 276 273 266 272 273 277 277 273 268 272 264 259 262 264 269 264 260 260 257 252 254 255 258
308 306 305 304 305 307 294 285 282 286 285 284 281 278 280 280 282 280 280 279 278 274 273 274 270 271 277 278 277 282 279 269 265 261 262 260 260 260 263 261 257 253 258 260
307 306 306 304 304 306 297 284 283 284 279 281 280 281 281 279 278 280 280 277 277 274 270 271 272 275 275 278 280 275 275 267 267 269 270 268 268 267 261 261 260 260 261 258
307 306 307 305 304 305 298 286 284 286 279 282 281 282 281 279 280 278 277 276 278 277 272 275 272 275 273 273 272 271 271 266 264 264 268 268 266 268 266 263 262 259 251 256
308 308 307 306 305 305 298 296 293 289 287 283 281 282 282 281 282 282 283 280 279 277 278 280 281 279 278 278 274 272 268 268 263 263 258 260 262 264 263 257 251 257 256 261
309 308 308 308 306 306 301 297 292 285 284 285 284 285 284 283 282 283 284 283 280 282 283 283 281 278 276 274 276 277 272 269 268 260 256 253 262 257 259 260 254 254 253 256
310 309 309 308 307 306 301 300 292 285 284 287 286 286 286 286 286 285 284 286 287 285 281 276 273 269 269 271 274 274 276 273 267 262 254 259 263 260 258 258 260 256 258 257
310 310 309 309 308 307 303 301 299 290 285 286 289 286 287 284 284 284 284 284 289 283 279 275 268 266 267 268 268 273 273 274 269 259 260 255 260 255 250 258 258 255 259 259
311 310 310 309 309 308 304 300 301 293 285 290 290 286 285 286 284 281 280 279 279 282 275 272 269 267 272 266 264 265 267 266 265 264 263 262 258 258 257 256 259 258 257 257
310 310 310 310 309 308 305 300 302 296 285 289 291 291 288 284 284 280 281 278 278 276 273 272 271 270 269 265 267 265 265 264 262 265 261 260 263 262 260 258 255 256 255 256
308 308 309 309 309 309 307 299 302 302 293 289 293 294 296 294 293 288 282 282 278 279 275 274 274 272 269 267 265 267 266 269 266 266 265 258 265 258 257 256 260 261 259 258
306 306 307 308 308 309 308 302 300 297 289 289 290 288 288 288 287 290 284 282 283 280 281 277 275 271 273 267 268 268 267 266 267 266 262 262 262 263 264 260 260 262 263 261
304 304 305 306 307 307 307 302 302 297 286 281 283 285 279 282 284 284 285 284 283 283 282 277 275 272 276 270 270 270 267 266 265 263 262 262 262 263 262 262 262 262 263 262
301 302 303 304 305 306 305 304 301 298 291 283 279 276 277 279 281 281 281 281 280 279 276 274 272 271 269 266 266 264 265 265 264 264 264 262 261 262 263 261 260 261 259 258
300 301 302 302 303 304 295 288 293 299 297 285 277 274 273 275 276 276 275 277 275 275 274 269 267 268 268 264 263 261 261 261 261 260 261 259 259 259 260 258 260 260 258 258
299 301 301 302 302 300 291 288 288 295 292 282 276 268 271 273 274 272 273 274 271 272 269 266 266 265 266 264 262 260 260 260 259 259 259 258 259 256 256 258 257 259 257 256
299 299 300 301 300 293 287 285 295 292 285 283 276 265 267 271 269 266 270 269 270 266 265 266 264 264 263 260 258 259 259 257 256 254 254 252 252 252 251 252 252 253 254 253
298 298 297 290 286 282 282 289 286 282 281 276 272 264 263 270 268 268 268 270 262 265 261 261 262 258 257 258 258 257 257 255 253 251 250 250 251 248 248 249 247 247 246 246
297 291 286 280 281 290 289 282 280 277 271 270 265 267 262 265 266 264 265 265 259 257 255 258 255 256 256 255 254 255 253 252 251 249 249 249 248 247 244 245 243 244 244 244
288 284 279 282 288 280 276 271 272 267 264 263 262 263 261 266 263 262 263 261 260 254 253 253 249 252 254 250 248 246 247 247 244 245 244 243 244 243 243 244 243 242 243 244
287 283 283 281 277 274 272 268 266 262 262 260 260 261 262 262 267 262 262 259 259 252 255 251 248 255 248 246 245 244 241 243 244 242 244 241 242 241 241 241 242 243 244 246
283 279 275 274 272 268 266 259 258 257 259 259 260 258 261 263 264 261 261 256 252 256 249 250 251 247 244 243 241 243 239 240 242 243 241 241 241 240 241 243 243 241 243 246
278 274 267 268 266 267 264 257 254 257 257 260 259 261 261 262 260 261 256 255 256 248 246 247 247 246 244 242 239 245 244 240 242 242 241 242 243 243 243 244 242 241 245 248
277 275 268 263 258 257 257 259 259 261 264 263 261 261 262 259 257 258 256 253 249 249 249 248 247 242 243 242 241 241 241 239 240 239 240 241 240 241 244 244 242 242 246 249
267 263 260 261 259 257 261 261 261 264 264 265 264 260 259 256 257 255 254 252 249 251 249 248 241 240 240 241 240 241 239 240 240 239 240 242 241 242 243 243 244 243 249 253
262 258 261 261 260 260 261 262 262 265 265 261 262 259 256 256 254 251 251 250 252 249 247 245 244 246 244 241 241 242 244 242 241 240 241 241 241 238 240 244 245 247 252 254

GFSNW_sfc_thetae_339.txt.gz
Theta_e
307 306 306 305 305 308 298 288 283 291 290 282 279 276 279 284 280 281 279 278 276 273 273 270 270 271 273 276 274 269 270 264 262 265 264 265 262 263 258 259 253 255 257 260
307 307 305 306 304 306 297 283 285 292 289 278 278 280 281 282 280 279 278 277 278 276 273 270 272 274 278 277 274 269 272 265 259 263 264 267 262 259 259 256 255 257 256 259
307 306 306 306 304 305 297 284 280 285 284 282 278 276 281 281 283 280 280 279 279 274 272 275 271 272 278 277 277 282 279 266 264 264 264 261 259 261 262 264 259 257 260 264
308 308 307 306 305 304 299 288 283 283 278 281 279 280 281 280 279 280 280 277 278 276 271 273 272 275 275 277 280 279 276 269 267 269 270 267 266 268 263 263 265 260 265 261
310 309 308 307 306 305 298 288 285 283 278 281 282 283 280 281 283 279 277 277 279 278 275 276 275 275 274 274 274 276 276 270 268 263 268 268 267 269 269 267 266 266 264 260
311 310 309 308 307 304 297 295 293 289 288 282 280 283 282 282 284 283 284 281 280 278 278 282 283 282 280 278 273 272 271 270 266 265 257 261 262 266 267 264 257 263 257 263
311 311 310 309 308 306 299 297 293 285 284 285 284 286 285 284 283 285 285 284 281 284 285 283 282 279 278 276 277 277 271 270 269 264 259 257 264 259 260 263 260 258 255 257
312 311 311 310 309 308 301 300 293 286 284 287 287 287 286 287 287 286 285 288 288 285 283 277 274 271 269 271 275 275 277 272 268 265 259 261 267 261 260 261 262 262 262 258
311 311 311 311 310 310 305 301 300 293 285 285 289 287 287 284 284 285 286 287 288 284 279 277 270 270 269 268 267 271 275 275 271 263 261 257 261 256 254 260 260 260 262 260
310 310 310 310 311 310 307 301 302 295 285 289 290 285 286 286 285 283 280 280 279 283 276 273 271 270 273 268 264 264 267 268 266 267 265 264 261 260 258 259 261 257 256 257
308 309 309 309 309 309 308 303 303 296 285 289 291 292 288 286 284 282 281 279 278 277 273 273 273 271 270 268 266 265 265 265 264 267 264 262 264 262 262 262 257 255 255 256
305 305 306 307 308 308 308 301 303 302 294 289 292 293 295 294 293 289 284 283 279 280 276 275 275 272 270 268 266 266 267 270 266 268 268 264 266 262 261 261 262 262 261 259
302 303 304 304 305 306 306 302 302 298 291 289 289 287 289 290 291 294 286 284 285 281 282 278 276 272 273 268 268 269 270 268 269 269 265 264 265 263 264 264 263 263 263 261
301 302 302 301 303 304 304 299 302 298 287 283 284 285 282 282 283 284 286 286 284 284 282 277 275 273 277 272 271 271 269 268 267 266 263 263 264 265 265 264 264 263 263 262
300 300 301 301 301 302 300 300 301 302 291 284 281 276 277 278 281 281 282 282 281 279 277 276 273 273 272 267 268 266 267 267 266 267 265 265 264 266 265 263 262 262 260 258
298 299 299 299 300 301 296 289 294 301 299 286 280 275 273 276 277 276 276 277 275 276 275 271 267 269 268 266 266 261 261 262 261 263 262 262 261 261 262 260 261 260 257 258
298 298 298 299 299 295 290 288 289 295 295 284 277 273 271 273 274 272 273 274 271 272 270 267 266 266 267 265 263 260 260 260 260 261 261 259 260 258 259 259 258 261 256 255
297 298 298 298 298 297 288 288 294 292 287 284 279 267 268 272 269 266 270 269 269 266 265 266 264 265 264 261 259 259 259 258 257 255 255 255 254 254 254 254 254 255 254 252
296 297 297 292 287 284 284 291 287 282 284 278 274 264 265 270 268 268 268 269 261 264 259 260 262 258 258 257 259 259 258 257 254 253 252 252 251 249 248 248 247 247 246 245
296 292 286 283 279 290 289 284 281 280 271 270 267 265 263 265 265 264 264 263 259 256 252 255 253 253 252 253 253 257 255 253 251 249 248 248 248 247 244 245 243 244 243 242
287 284 281 282 288 281 277 273 273 271 269 263 262 262 261 267 264 262 264 261 260 257 254 252 246 250 253 247 246 244 244 245 242 244 243 243 245 245 243 243 242 241 241 242
286 284 282 282 278 274 270 267 263 262 261 258 258 260 262 263 267 263 262 259 260 255 256 251 248 255 250 244 243 242 240 241 243 241 244 241 242 240 241 241 241 241 243 243
284 279 275 274 273 268 266 262 257 257 257 257 259 258 260 264 265 262 261 258 256 258 251 253 255 253 247 243 241 241 237 238 241 242 240 240 240 239 240 242 242 240 241 243
277 273 269 265 265 267 258 263 263 260 260 261 262 261 262 263 261 261 257 256 257 252 250 253 253 250 245 243 239 244 243 240 241 242 241 241 242 242 242 243 240 240 244 245
275 274 265 258 257 256 255 256 259 261 264 263 262 262 262 260 258 259 256 254 253 252 253 252 250 247 244 242 240 241 241 240 239 239 239 240 240 241 243 243 240 241 244 245
264 261 260 260 257 257 261 262 262 265 265 266 265 261 259 257 258 256 256 255 253 254 252 250 245 240 239 240 240 242 239 240 240 239 239 241 240 241 242 241 242 243 244 248
257 254 260 258 256 256 258 260 262 266 265 262 263 260 257 258 255 254 254 254 254 251 249 248 244 246 243 240 241 242 243 241 240 239 240 240 239 236 239 243 244 243 250 249

GFSNW_sfc_thetae_342.txt.gz
Theta_e
308 306 306 305 305 304 298 286 282 289 289 281 279 275 279 284 280 279 279 277 277 274 274 271 271 271 274 277 274 270 269 264 261 265 264 265 262 262 262 260 254 254 256 259
307 307 306 306 304 304 297 287 284 290 288 277 277 280 281 282 280 279 279 277 278 277 274 273 273 274 278 277 275 270 271 265 260 263 263 267 263 261 262 257 253 254 255 261
309 308 307 307 305 304 298 288 280 286 284 281 277 276 281 281 283 280 280 279 279 275 273 276 274 273 278 277 277 281 278 266 266 268 267 263 262 263 263 266 257 261 263 266
310 310 309 308 306 305 299 290 285 284 279 281 279 280 281 280 279 280 280 278 278 276 273 273 273 276 275 277 279 280 275 268 267 270 271 266 267 269 265 263 266 262 267 264
311 310 310 309 307 305 297 288 286 285 280 282 281 282 280 281 283 280 279 277 279 278 277 277 276 276 276 275 276 276 277 270 269 267 269 269 268 270 269 268 266 266 267 267
312 311 310 310 308 305 295 296 294 289 287 282 281 282 284 283 285 285 287 282 281 278 279 283 284 285 282 280 274 274 274 271 269 266 257 259 262 265 268 268 270 268 264 269
312 311 311 311 310 306 299 297 293 285 284 285 284 286 285 285 285 285 286 285 281 285 287 284 283 281 281 279 278 278 272 271 270 265 263 258 266 258 261 265 269 265 261 261
312 312 311 311 311 309 300 299 294 286 284 287 286 287 286 287 288 286 287 288 288 287 283 278 276 273 271 272 277 276 278 272 269 265 262 264 269 261 260 261 263 266 266 269
310 310 311 311 311 312 306 301 300 292 285 285 289 287 288 285 285 285 287 291 289 285 280 277 271 271 271 271 267 272 276 276 271 267 263 260 262 258 253 260 262 266 266 267
307 307 308 309 310 310 308 304 302 296 284 290 290 285 285 288 285 284 282 282 281 284 278 274 273 272 275 270 266 263 267 270 267 268 267 268 264 261 258 261 266 259 260 260
304 304 305 306 306 308 306 303 304 297 286 290 291 292 288 287 286 283 281 280 279 277 275 275 274 273 272 268 267 264 267 266 265 268 265 263 264 263 266 266 257 257 257 259
301 302 302 303 304 305 306 298 304 303 295 291 294 295 296 294 293 288 284 283 279 281 277 276 276 273 270 266 268 263 268 272 268 269 269 265 267 266 264 262 263 262 262 260
300 301 301 301 301 303 302 299 300 299 292 292 288 288 292 294 295 296 286 285 287 282 284 281 278 273 274 269 269 268 269 270 270 271 267 266 267 265 265 265 265 265 264 262
300 300 300 300 301 301 301 296 298 296 287 283 285 286 283 282 284 286 287 288 285 285 283 278 276 273 278 273 272 271 269 270 269 269 265 265 266 266 265 265 265 265 264 263
298 299 299 299 300 300 298 295 297 297 290 284 284 279 277 279 281 282 282 282 282 280 277 276 274 275 273 268 269 267 267 268 268 269 266 266 264 267 266 264 264 264 262 261
297 297 298 298 298 299 290 286 289 295 296 286 280 277 272 275 278 277 277 278 276 278 277 274 269 269 269 267 267 261 262 262 262 263 262 261 261 262 265 263 263 262 260 259
297 297 297 298 298 294 288 284 286 295 295 285 282 272 271 274 274 273 274 274 271 273 271 268 267 266 267 266 262 258 259 260 259 260 262 261 261 259 260 260 259 262 256 255
295 296 296 297 297 295 289 291 295 294 288 284 279 270 269 272 269 267 270 269 269 266 266 266 264 265 264 262 258 259 259 259 257 256 257 257 256 256 255 256 256 255 254 252
294 295 295 291 287 285 284 292 290 286 286 274 272 270 268 270 268 269 269 269 263 263 260 260 262 259 259 257 258 258 259 258 254 254 254 253 252 251 250 250 249 249 247 245
293 290 285 282 281 289 289 285 281 280 273 272 272 264 259 263 265 265 265 264 261 260 255 257 255 255 252 257 256 259 258 256 255 252 250 249 249 247 244 244 242 243 243 241
284 282 282 284 289 282 274 271 273 272 270 266 264 264 262 267 264 262 265 262 260 259 257 257 254 254 257 253 252 252 253 252 247 245 244 244 246 245 243 243 241 240 240 241
286 283 282 282 277 274 270 269 266 261 262 259 262 262 264 264 267 263 262 260 260 258 258 256 256 257 253 252 251 248 247 246 246 243 246 240 243 241 241 241 241 241 242 242
284 279 275 274 271 265 267 256 257 257 257 256 257 258 261 263 264 262 262 259 257 259 256 256 257 255 253 251 248 245 239 240 243 241 240 240 239 238 240 242 240 239 239 241
277 272 265 263 265 264 258 258 259 261 262 262 262 261 262 263 261 262 258 256 258 254 252 254 257 255 252 248 246 248 243 239 241 241 240 241 242 241 241 241 239 239 242 243
267 269 261 258 258 258 258 258 260 261 262 262 262 262 262 260 258 259 257 254 254 255 255 255 252 249 249 248 243 241 243 240 239 238 239 240 239 240 241 241 239 240 242 244
263 260 259 261 259 259 261 262 261 264 263 264 264 261 260 258 258 257 257 258 257 257 255 253 248 246 242 242 243 243 239 241 239 239 239 240 239 240 240 239 240 241 243 246
256 253 258 258 258 257 258 259 261 265 265 261 262 259 257 258 257 256 257 257 256 253 250 249 246 247 246 242 243 243 243 242 240 239 239 239 237 235 239 243 242 240 246 248

GFSNW_sfc_thetae_345.txt.gz
Theta_e
308 308 306 306 305 303 298 286 281 288 288 280 279 274 279 285 280 279 279 277 278 277 274 272 271 272 276 277 274 271 271 266 264 267 265 266 264 264 263 264 259 257 258 262
308 308 307 307 306 304 297 286 283 289 287 276 276 279 281 282 279 279 278 278 279 277 275 275 273 275 278 277 276 273 271 266 263 266 265 268 265 263 263 261 259 257 258 265
309 309 309 308 307 305 298 289 281 286 282 282 279 277 280 281 283 282 281 279 279 276 273 276 277 274 278 278 278 282 279 267 268 271 272 267 263 262 265 268 262 264 264 268
311 310 310 309 308 306 298 290 285 286 280 282 281 282 281 281 281 282 280 277 278 276 273 274 274 276 276 277 280 280 276 267 267 270 272 268 266 265 265 265 268 264 270 268
312 311 311 310 309 306 296 288 286 285 282 281 281 283 280 283 284 281 279 278 281 279 278 279 278 278 277 275 276 276 276 269 269 268 271 270 268 270 270 266 268 268 269 269
313 312 311 311 310 305 294 296 294 289 287 282 281 281 283 283 286 285 288 283 282 279 280 284 285 286 284 282 275 274 274 272 270 267 259 262 263 267 270 271 272 269 266 271
312 312 312 311 311 306 299 297 293 285 283 285 284 284 285 284 285 285 286 287 284 286 287 285 284 283 283 281 278 278 273 272 271 267 266 262 269 261 269 270 272 273 271 272
310 311 311 311 312 311 301 299 294 286 284 288 287 286 286 287 287 287 287 289 290 288 284 279 277 274 272 274 278 276 279 274 269 266 264 267 272 262 263 264 268 270 271 273
307 307 308 309 310 311 307 301 301 290 285 287 290 288 288 285 285 286 287 292 292 286 281 278 273 272 271 272 268 272 276 277 271 268 264 262 267 260 259 265 265 270 270 271
302 303 305 306 307 308 307 304 302 296 284 291 291 286 286 288 285 283 282 285 282 286 280 276 275 273 276 271 267 264 268 271 269 269 268 269 266 263 261 266 271 262 264 265
301 300 302 303 304 305 304 301 305 297 286 290 292 294 289 287 287 284 280 281 280 279 276 276 276 275 274 271 271 266 267 266 267 269 267 264 265 263 267 270 261 260 257 258
301 301 301 301 302 302 303 296 302 304 295 292 295 296 297 296 295 290 285 284 279 282 278 277 277 274 271 268 270 265 270 273 270 271 270 267 268 268 267 266 267 264 264 262
298 300 300 300 301 301 300 295 297 297 290 291 289 289 293 295 297 297 286 284 288 283 283 281 280 274 274 269 269 267 267 272 272 272 272 269 267 267 267 267 267 266 266 264
297 298 299 299 300 300 300 294 293 293 287 282 285 287 285 282 284 286 288 289 286 285 284 282 278 275 279 274 274 272 270 271 272 272 269 267 268 270 267 266 266 265 265 264
296 297 298 298 298 299 297 295 294 295 288 281 281 280 278 279 280 282 284 284 286 281 278 277 275 274 275 269 271 269 268 270 271 272 267 268 264 267 267 265 265 265 264 263
296 296 297 298 298 298 291 285 290 294 293 284 278 274 272 276 278 279 278 278 278 280 279 277 271 270 272 269 269 262 261 262 262 264 263 262 262 263 265 264 264 264 263 262
295 295 295 297 296 294 287 284 287 296 295 284 280 274 271 275 275 273 274 274 272 274 273 270 269 268 269 268 266 260 260 260 260 261 263 261 261 259 261 261 262 262 258 258
294 294 294 295 295 294 288 292 295 295 287 284 277 270 267 271 269 267 271 270 270 267 267 266 265 266 265 264 260 259 259 259 258 257 258 258 258 257 257 258 258 257 256 255
294 294 294 288 285 283 285 291 288 287 285 278 274 269 270 267 264 265 266 266 261 263 258 260 262 262 262 262 259 258 259 260 256 256 256 256 255 254 254 253 253 253 249 246
293 287 281 279 284 289 289 285 281 280 274 271 269 264 261 265 264 263 260 261 260 261 257 260 259 260 257 256 257 260 259 257 257 256 254 254 253 252 246 247 243 245 244 242
284 280 279 284 289 282 277 273 269 271 269 263 261 262 263 267 265 264 265 262 258 255 254 256 253 251 251 250 254 256 257 256 252 250 250 249 249 248 248 243 241 240 240 242
285 282 283 281 278 273 271 268 263 260 260 260 258 261 264 265 268 264 263 261 261 258 259 256 253 254 249 254 253 251 252 251 248 247 247 244 248 243 244 242 241 241 241 241
284 280 275 273 272 268 266 257 260 264 262 261 262 262 264 264 265 262 262 259 257 259 255 256 259 257 255 253 250 247 245 245 246 243 244 241 238 238 241 242 240 238 238 239
276 270 267 265 261 258 258 258 260 261 262 262 263 262 262 261 262 262 259 256 258 255 253 255 259 256 253 250 247 247 245 244 246 242 240 241 243 241 240 240 238 239 241 242
265 266 258 256 258 259 259 258 260 263 264 263 261 261 263 261 259 259 257 255 255 255 255 256 254 250 250 249 247 247 245 240 240 238 239 239 239 241 241 240 238 239 241 243
259 256 259 260 261 259 259 260 261 263 262 263 264 260 259 258 258 256 257 258 258 258 255 253 249 247 245 246 243 243 242 242 239 239 239 240 240 240 240 237 239 241 242 244
253 252 258 257 256 257 258 260 260 264 263 261 262 260 257 258 258 258 259 258 257 254 253 251 247 247 246 243 245 245 244 243 241 238 238 239 236 235 239 243 242 239 242 243